Regional Weather Roundup
Issued by NWS

Home | Current Version | Previous Version | Graphics & Text | Print | Product List | Glossary On
Versions: 1 2 3 4 5 6 7 8 9 10 11 12 13 14 15 16 17 18 19 20 21 22 23 24 25 26 27 28 29 30 31 32 33 34 35 36 37 38 39 40 41 42 43 44 45 46 47 48 49 50
000
ASUS45 KTFX 110804
RWRMT
MONTANA HOURLY WEATHER ROUNDUP
NATIONAL WEATHER SERVICE GREAT FALLS MT
204 AM MDT FRI JUL 11 2014

NOTE: "FAIR" INDICATES FEW OR NO CLOUDS BELOW 12000 FEET WITH NO
SIGNIFICANT WEATHER AND/OR OBSTRUCTIONS TO VISIBILITY.

* THESE STATIONS ARE NOT UNDER NWS QUALITY CONTROL. THEY DO NOT
   REPORT WEATHER SUCH AS PRECIPITATION OR FOG.

MTZ001>007-043-110900-
WEST OF THE DIVIDE
CITY           SKY/WX    TMP DP  RH WIND       PRES   REMARKS
KALISPELL      CLEAR     66  48  52 N17       29.95R
MISSOULA       CLEAR     63  37  38 CALM      29.97R
BUTTE          CLEAR     57  37  47 SE6       30.10R
MULLAN PASS    CLEAR     63  36  37 CALM      30.13R
* ESSEX        N/A      N/A N/A N/A N/A        N/A
* LINCOLN      N/A       51  42  71 E1         N/A
* LOOKOUT PASS N/A       58  40  51 N/A        N/A
* POLSON       N/A       63  41  45 N/A        N/A
* RONAN APT    CLEAR     55  48  77 N/A        N/A
* SEELEY LAKE  N/A       49  42  77 NE2        N/A
* THOMP F APT  CLEAR     60  45  58 N5         N/A
* YAAK HILL    N/A       61  48  62 N/A        N/A
$$

MTZ008-052>055-110900-
SOUTHWEST MONTANA
CITY           SKY/WX    TMP DP  RH WIND       PRES   REMARKS
BOZEMAN        CLEAR     54  46  74 SE10      30.01R
DILLON         PTCLDY    64  39  40 S5        30.04R
W YELLOWSTONE  CLEAR     50  46  86 CALM      30.17R
* THREE FORKS  PTCLDY    57  57 100 N/A        N/A
* BOULDER HILL N/A       64  32  30 N/A        N/A
* MONIDA PASS  N/A       57  47  69 W2         N/A
* RAYNOLDS PAS N/A       56  40  55 S4         N/A
* WHITEHALL    N/A       63  36  37 NW3G9      N/A
* WISE RIVER   N/A       56  38  51 SE4        N/A
$$

MTZ009>010-012-014-046-048-049-054-110900-
EAST SLOPES AND CENTRAL MONTANA
CITY           SKY/WX    TMP DP  RH WIND       PRES   REMARKS
CUT BANK       MOCLDY    59  50  72 N14       30.12R
GREAT FALLS    CLEAR     66  48  52 NW8       29.98R
HELENA         CLEAR     66  36  33 CALM      29.98R
* CONRAD       PTCLDY    61  54  78 NW10       N/A
* DEARBORN     N/A       64  49  58 SW1        N/A
* EAST GLACIER N/A       54  48  80 NE9        N/A
* MONARCH      N/A       55  34  45 S2         N/A
* SAINT MARY   N/A       56  51  83 NE3G9      N/A
* SWEET GRASS  N/A       56  56 100 N11        N/A
$$

MTZ011-013-016-021-035-040-045-047-050-051-110900-
NORTH CENTRAL MONTANA
CITY           SKY/WX    TMP DP  RH WIND       PRES   REMARKS
HAVRE          TSTM      64  59  84 N21G36    30.02R
* CHESTER      N/A       65  57  75 NE14G23    N/A
* DENTON       N/A       61  49  65 N4         N/A
* GEYSER       N/A       56  43  62 N/A        N/A
* JUDITH GAP   N/A       71  47  43 E15G22     N/A
* LOMA         N/A       70  58  66 N19G26     N/A
$$

MTZ017>020-022>027-061-062-110900-
NORTHEAST MONTANA
CITY           SKY/WX    TMP DP  RH WIND       PRES   REMARKS
GLASGOW        PTCLDY    66  57  73 E10       29.91S
GLENDIVE       CLEAR     66  57  73 NE13      29.92S
JORDAN         MOCLDY    70  57  64 NE6       29.92R
SIDNEY         CLEAR     63  57  81 NW7       29.92R
WOLF POINT     PTCLDY    61  55  81 E5        29.91S
* BEAVER HILL  N/A       62  59  90 N7         N/A
* CIRCLE       N/A       67  59  76 NE5        N/A
* LINDSAY DVD  N/A       62  58  87 NE9        N/A
* NAVAJO       N/A       60  56  87 N6         N/A
$$

MTZ028>042-056>058-110900-
SOUTHCENTRAL AND SOUTHEAST MONTANA
CITY           SKY/WX    TMP DP  RH WIND       PRES   REMARKS
BAKER          CLEAR     64  61  90 E5        29.92F
BILLINGS       CLEAR     72  52  49 N3        29.91R
LIVINGSTON     CLEAR     57  43  60 W5        29.99R
MILES CITY     PTCLDY    68  63  84 NE7       29.90R
* LAUREL APT   CLEAR     73  48  41 SW6        N/A
* ROUNDUP APT  CLEAR     68  45  44 N/A        N/A
* ALZADA       N/A       66  58  76 NW6        N/A
* HYSHAM       N/A       72  47  41 E6         N/A
* LAME DEER    N/A       70  49  47 SE8        N/A
* REED POINT   N/A       61  50  67 N/A        N/A
* ROSCOE HILL  N/A       72  40  31 S11G17     N/A
$$

REGIONAL REPORTS...DAKOTAS
CITY           SKY/WX    TMP DP  RH WIND       PRES   REMARKS
WILLISTON      CLEAR     63  59  87 N9        29.89S
DICKINSON      FOG       63  61  93 W9        29.88R
CROSBY         N/A       59  59 100 NW7       29.91S
WATFORD CITY   CLEAR     59  59 100 NE6       29.85F
BISMARCK       CLEAR     66  64  93 NW3       29.83S
GRAND FORKS    PTCLDY    64  63  97 CALM      29.79F
FARGO          PTCLDY    72  66  81 SE10      29.79F
BUFFALO SD     PTCLDY    66  64  93 NE8       29.85R
RAPID CITY     PTCLDY    66  63  90 SE5       29.92S
$$

REGIONAL REPORTS...WYOMING/IDAHO/WASHINGTON
CITY           SKY/WX    TMP DP  RH WIND       PRES   REMARKS
GILLETTE       CLEAR     66  55  68 S6        29.98S
SHERIDAN       PTCLDY    59  54  84 W3        29.95S
CODY           PTCLDY    66  54  65 S10       30.05S
YELLOWSTONE LA CLEAR     46  43  89 CALM      30.28S
SALMON         CLEAR     61  48  62 CALM      29.97R
MULLAN PASS    CLEAR     63  36  37 CALM      30.13S
SAND POINT     CLEAR     55  52  90 CALM      29.91R
SPOKANE        MOCLDY    73  41  32 E5        29.89S

$$



USA.gov is the U.S. government's official web portal to all federal, state and local government web resources and services.